Regional Weather Roundup
Issued by NWS Kansas City/Pleasant Hill, MO

Home | Current Version | Previous Version | Graphics & Text | Print | Product List | Glossary Off
Versions: 1 2 3 4 5 6 7 8 9 10 11 12 13 14 15 16 17 18 19 20 21 22 23 24 25 26 27 28 29 30 31 32 33 34 35 36 37 38 39 40 41 42 43 44 45 46 47 48 49 50

000
ASUS43 KEAX 281904
RWREAX

WEATHER ROUNDUP FOR EASTERN KANSAS AND NORTHWEST MISSOURI
NATIONAL WEATHER SERVICE KANSAS CITY/PLEASANT HILL MO
200 PM CDT MON JUL 28 2014

KSZ040-057-103>105-MOZ028-029-037-043-282000-
...KANSAS CITY METROPOLITAN AREA...

CITY           SKY/WX    TMP DP  RH WIND       PRES   REMARKS
K.C. INTL      PTSUNNY   78  60  53 N8        30.22F
K.C. DOWNTOWN  PTSUNNY   78  60  53 NW8       30.20F
LEES SUMMIT    MOSUNNY   80  58  46 N8        30.21F
OLATHE - IXD   MOSUNNY   78  58  49 N13       30.22F
OLATHE - OJC   MOSUNNY   79  58  48 N10       30.21F
LAWRENCE       PTSUNNY   81  59  47 NW9       30.22F

$$

MOZ001>008-011>017-020>025-030>033-038>040-044>046-053-054-282000-
...NORTHERN AND CENTRAL MISSOURI...

CITY           SKY/WX    TMP DP  RH WIND       PRES   REMARKS
ST. JOSEPH     MOSUNNY   77  63  61 N10       30.23F
MOSBY          PTCLDY    77  59  53 N9        30.21F
WHITEMAN AFB   MOSUNNY   77  49  37 NW9       30.19S
CLINTON        MOSUNNY   79  63  57 NW6G16    30.19F
SEDALIA        PTSUNNY   79  62  56 NW12      30.19F
WARSAW         NOT AVBL
CHILLICOTHE      N/A     79  59  50 N8        30.21S
KIRKSVILLE     SUNNY     76  54  46 N12       30.20S

$$

MOZ041-047>049-056>058-063>065-088>090-097-282000-
...EASTERN AND SOUTHERN MISSOURI...

CITY           SKY/WX    TMP DP  RH WIND       PRES   REMARKS
ST. LOUIS INTL PTSUNNY   79  61  53 N15       30.11F
SPIRIT OF STL  PTSUNNY   80  57  45 NW17      30.10F
COLUMBIA       MOSUNNY   80  60  50 N17       30.16F
JEFFERSON CITY PTSUNNY   78  60  53 N9        30.14F
ROLLA          CLOUDY    78  58  49 NW10      30.13F
LEBANON        SUNNY     82  57  42 NW10      30.17F
OSAGE BEACH    PTSUNNY   79  57  47 N9        30.15F
SPRINGFIELD    SUNNY     82  57  42 N9        30.17F
BRANSON        MOSUNNY   84  54  34 NW10G20   30.17F
JOPLIN         SUNNY     83  56  39 NW15      30.19F
WEST PLAINS    MOSUNNY   82  59  45 NW9       30.14F
MALDEN         SUNNY     82  63  51 NW8       30.07F

$$

IAZ060-094-KSZ022-034>040-054-083-096-NEZ052-066-093-282000-
...KANSAS...SOUTHEAST NEBRASKA AND IOWA...

CITY           SKY/WX    TMP DP  RH WIND       PRES   REMARKS
TOPEKA         MOSUNNY   82  57  42 N10G16    30.22F
MANHATTAN      SUNNY     83  54  36 VRB6      30.24F
EMPORIA        SUNNY     81  54  39 N8        30.23F
CHANUTE        SUNNY     82  58  43 N13       30.22F
WICHITA        MOSUNNY   83  60  45 NW7G16    30.24F
OMAHA          MOSUNNY   77  55  46 NW10      30.24F
LINCOLN        PTSUNNY   78  53  41 N8        30.27F
FALLS CITY     PTSUNNY   77  59  53 N8        30.23F
LAMONI         PTSUNNY   73  55  53 VRB5      30.22F
DES MOINES     PTSUNNY   76  54  46 NW8       30.20F

$$




USA.gov is the U.S. government's official web portal to all federal, state and local government web resources and services.